WARR

Surabaya/Juanda International Airport

Airport
ICAO code
WARR
IATA Code
SUB
Summary
ICAO Region
APAC
ICAO Territory
Location

Sidoarjo, Jawa Timur

Serving
Surabaya
Elevation
9 ft
Coordinates
7° 22' 47" S , 112° 47' 13" E
KCC
Metar
Observation
WARR 062230Z 29006KT 5000 HZ FEW020 25/25 Q1006 NOSIG
Station
JUANDA
Date/Time
2023-02-06 22:30:00
Wind direction
290°
Wind speed
06 kts
Lowest cloud amount
few clouds
Temperature
25°C
Dew point
25°C
Humidity
100%
QNH
1006 hPa
Weather condition
n/a

Juanda International Airport is an airport located in Sidoarjo, a small town near Surabaya, East Java. This airport serves Surabaya and surrounding areas.

Climatology

Tropical Savanna climate (Köppen climate classification Aw) - monthly mean temperature above 18°C in every month of the year and a pronounced dry season.

Airport map

Aerial View

Airport accidents

SKYbrary Partners:

Safety knowledge contributed by: